Location: *
(11.7485°N, 79.7483°E)
Time: 11:00:30
(UTC+00:00)

ERS-2 - Pass Details

Date: 22 January 2021
Orbit: 492 x 497 km, 98.6° (Epoch: 24 February)

Event Time Altitude Azimuth Distance (km) Brightness Sun altitude
Rises 00:37:56 0° 173° (S) 2,575 6.1 -7.3°
Reaches altitude 10° 00:40:01 10° 177° (S) 1,692 5.1 -6.8°
Maximum altitude 00:43:37 62° 258° (WSW) 561 2.1 -6.0°
Drops below altitude 10° 00:47:12 10° 339° (NNW) 1,690 4.4 -5.2°
Sets 00:49:18 0° 343° (NNW) 2,572 5.4 -4.7°
